|
NORAD ID: 35273 Int'l Code: 2005-024M
Perigee: 536.1 km
Apogee: 557.4 km
Inclination: 97.7 °
Period: 95.4 minutes
Semi major axis: 6917 km
Launch date: July 5, 2005
Source: People's Republic of China (PRC)
Note: This is SATELLITE DEBRIS
Two Line Element Set (TLE):
1 35273U 05024M 13127.32629492 .00002664 00000-0 17281-3 0 3907
2 35273 097.7067 144.0782 0015367 341.8695 078.3207 15.08889252451917
Source:
NASA's NSSDC Master Catalog entry for CZ-2D DEB
|